[[{"header":{"parameterUnit":"m.s-1","parameterCategory":1,"la1":30.2991,"la2":30.254,"lo1":-89.0895,"lo2":-89.0444,"dy":0.0017,"dx":0.0017,"nx":28,"ny":28,"refTime":"2026-01-09T03:00:00:Z","depth":0,"parameterNumber":2,"parameterNumberName":"U-component_of_WINDS"},"data":[0,0,0,0,0,0,0,0,0,0,0,0,0,0,0,0,0,0,0,0,0,0,0,0,0,0,0,0,0,0,0,0,0,0,0,0,0,0,0,0,0,0,0,0,0,0,0,0,0,0,0,0,0,0,0,0,0,0,-4.4182,-4.4184,0,-4.4328,-4.4329,-4.4331,-4.4332,-4.4331,-4.4329,-4.4327,-4.4476,-4.4481,-4.4487,0,0,0,0,0,0,0,0,0,0,0,0,0,-4.3906,-4.3911,-4.4182,-4.4184,-4.4186,-4.4328,-4.433,-4.4332,-4.4333,-4.4331,-4.4328,-4.4326,-4.4474,-4.4481,-4.4488,0,0,0,0,0,0,0,0,0,0,0,0,0,-4.4036,-4.3913,-4.4182,-4.4203,-4.4207,-4.4327,-4.433,-4.4332,-4.4333,-4.4331,-4.4328,-4.4325,-4.4472,-4.448,-4.4488,-4.4597,0,0,-4.4515,-4.4518,0,0,0,0,0,0,0,0,-4.4029,-4.4046,-4.4198,-4.4202,-4.4206,-4.4309,-4.4287,-4.4421,-4.4334,-4.4285,-4.4327,-4.4324,-4.4423,-4.4435,-4.4468,-4.4604,-4.461,-4.4515,-4.4521,-4.4524,-4.4527,0,0,0,0,0,0,0,-4.402,-4.404,-4.424,-4.4201,-4.4205,-4.4206,-4.4222,-4.4312,-4.4368,-4.4289,-4.429,-4.4307,-4.4424,-4.446,-4.4472,-4.4612,-4.4515,-4.4523,-4.4528,-4.4531,-4.4844,-4.4847,0,0,0,0,0,0,-4.4006,-4.4032,-4.4235,-4.4244,-4.4109,-4.4213,-4.4231,-4.4279,-4.4367,-4.4377,-4.4309,-4.4307,-4.4447,-4.4462,-4.4477,-4.4609,-4.4524,-4.4532,-4.4537,-4.4841,-4.4845,-4.4848,0,0,0,0,0,0,-4.4,-4.4024,-4.4229,-4.4139,-4.4165,-4.4221,-4.4275,-4.4283,-4.4319,-4.4382,-4.4392,-4.4336,-4.4445,-4.4465,-4.4567,-4.4614,-4.4536,-4.4544,-4.4837,-4.4842,-4.4847,-4.4874,0,0,0,0,0,0,-4.3992,-4.4022,-4.4063,-4.4139,-4.4169,-4.4316,-4.4278,-4.4288,-4.4334,-4.4332,-4.4409,-4.4419,-4.4445,-4.4554,-4.4576,-4.4625,-4.455,-4.4833,-4.484,-4.4845,-4.4869,-4.4879,-4.4888,0,0,0,0,0,-4.3982,-4.4065,-4.4065,-4.409,-4.4222,-4.4319,-4.4336,-4.4364,-4.4338,-4.438,-4.442,-4.4417,-4.4607,-4.4565,-4.4589,-4.4641,-4.483,-4.4838,-4.4845,-4.4865,-4.4878,-4.4888,0,0,0,0,0,0,-4.3993,-4.4075,-4.4077,-4.4186,-4.4246,-4.4319,-4.4373,-4.4376,-4.4444,-4.4439,-4.447,-4.4488,-4.4589,-4.4626,-4.4578,-4.4751,-4.4715,-4.4728,-4.4723,-4.4735,-4.4744,-4.4732,-4.4557,0,0,0,0,0,-4.4008,-4.408,-4.4148,-4.4238,-4.4268,-4.4316,-4.4359,-4.4375,-4.4438,-4.4463,-4.4511,-4.4572,-4.4645,-4.4692,-4.4763,-4.4876,-4.4892,-4.4924,-4.4933,-4.4941,-4.495,-4.5012,-4.5027,-4.4872,-4.4872,-4.4872,0,0,-4.404,-4.4094,-4.4137,-4.4242,-4.429,-4.4363,-4.4337,-4.4415,-4.447,-4.4475,-4.4573,-4.4611,-4.4681,-4.4789,-4.4839,-4.4823,-4.4997,-4.495,-4.4955,-4.4961,-4.5021,-4.5036,-4.5049,-4.4877,-4.4876,-4.4875,0,0,-4.4134,-4.4183,-4.4263,-4.4312,-4.4385,-4.4417,-4.4436,-4.451,-4.4535,-4.4635,-4.464,-4.4706,-4.4832,-4.4882,-4.4924,-4.504,-4.5039,-4.5062,-4.511,-4.517,-4.5183,-4.5193,-4.5234,-4.5248,-4.5072,-4.5072,-4.5072,0,-4.4164,-4.4275,-4.4304,-4.4384,-4.4429,-4.4438,-4.452,-4.4566,-4.4659,-4.469,-4.4671,-4.483,-4.4878,-4.4997,-4.5025,-4.506,-4.5082,-4.5052,-4.5179,-4.519,-4.52,-4.5239,-4.5254,-4.5075,-4.5074,-4.5074,-4.5074,0,-4.4308,-4.4385,-4.4441,-4.453,-4.4583,-4.4663,-4.4705,-4.4755,-4.4768,-4.4801,-4.4903,-4.4962,-4.5045,-4.5075,-4.5088,-4.5197,-4.5184,-4.5172,-4.5136,-4.5217,-4.5254,-4.5269,-4.5078,-4.5077,-4.5076,-4.5076,0,0,-4.441,-4.4516,-4.4536,-4.4577,-4.466,-4.472,-4.4801,-4.4882,-4.4924,-4.4989,-4.5057,-4.5165,-4.5154,-4.5201,-4.5221,-4.5274,-4.5361,-4.5255,-4.5257,-4.5271,-4.5484,-4.5491,-4.5508,-4.5362,-4.5365,-4.5368,-4.5477,0,-4.4513,-4.4656,-4.4686,-4.481,-4.4881,-4.4892,-4.4963,-4.5021,-4.5056,-4.5121,-4.516,-4.5234,-4.5215,-4.5244,-4.5297,-4.5339,-4.5404,-4.5332,-4.5425,-4.5428,-4.5405,-4.5527,-4.5535,-4.5635,-4.5492,-4.5495,-4.5496,0,-4.465,-4.4718,-4.4849,-4.4923,-4.4954,-4.5017,-4.5095,-4.5158,-4.5225,-4.5246,-4.53,-4.5314,-4.5399,-4.5362,-4.5479,-4.543,-4.547,-4.5497,-4.5501,-4.5509,-4.5465,-4.5536,-4.5668,-4.5682,-4.552,-4.5518,-4.5516,0,-4.471,-4.4835,-4.4929,-4.4964,-4.5053,-4.5097,-4.5136,-4.52,-4.5248,-4.5316,-4.5347,-4.5424,-4.5466,-4.5526,-4.5561,-4.553,-4.5676,-4.5641,-4.5695,-4.5694,-4.5722,-4.572,-4.586,-4.5753,-4.5752,-4.5752,-4.5752,0,-4.482,-4.4899,-4.4957,-4.5015,-4.5105,-4.514,-4.5228,-4.5266,-4.5324,-4.539,-4.5405,-4.5466,-4.5509,-4.5577,-4.5605,-4.5698,-4.5717,-4.5736,-4.5742,-4.5734,-4.5731,-4.5759,-4.5752,-4.5756,-4.5755,-4.5754,-4.5754,0,-4.49,-4.4942,-4.5046,-4.5122,-4.5143,-4.5206,-4.5271,-4.5328,-4.5364,-4.5447,-4.5469,-4.5524,-4.5605,-4.5646,-4.5747,-4.5766,-4.587,-4.5873,-4.5847,-4.5849,-4.5899,-4.5893,-4.6061,-4.6084,-4.5963,-4.5964,-4.5965,0,-4.4966,-4.5028,-4.5111,-4.5156,-4.5196,-4.5269,-4.5318,-4.5355,-4.5405,-4.5487,-4.5534,-4.5616,-4.5683,-4.5812,-4.5861,-4.5938,-4.5942,-4.5996,-4.5953,-4.5943,-4.5941,-4.5936,-4.5942,-4.6002,-4.6003,-4.6004,-4.6005,0,-4.5078,-4.5097,-4.5166,-4.5244,-4.5301,-4.5364,-4.5426,-4.5462,-4.551,-4.5566,-4.5648,-4.5701,-4.5804,-4.5885,-4.5966,-4.6007,-4.6014,-4.6018,-4.6034,-4.6025,-4.6006,-4.6015,-4.5865,-4.6013,-4.6013,-4.6012,-4.6011,-4.6011,-4.5153,-4.5208,-4.5275,-4.5352,-4.5403,-4.5461,-4.5518,-4.5561,-4.5631,-4.5717,-4.5736,-4.5824,-4.5891,-4.6001,-4.6044,-4.6113,-4.6102,-4.6126,-4.6131,-4.6136,-4.6137,-4.5998,-4.6129,-4.6128,-4.6128,-4.6128,-4.6128,0,-4.5264,-4.5308,-4.5379,-4.5465,-4.5526,-4.5529,-4.5598,-4.5649,-4.5726,-4.5788,-4.5854,-4.5949,-4.6028,-4.6085,-4.6165,-4.621,-4.6215,-4.6229,-4.6225,-4.6234,-4.6144,-4.6121,-4.6224,-4.6224,-4.6224,-4.6224,-4.6224,-4.6224,-4.5329,-4.5422,-4.5449,-4.5568,-4.5612,-4.5697,-4.5737,-4.579,-4.584,-4.5946,-4.6011,-4.6048,-4.6108,-4.6193,-4.6266,-4.6281,-4.6309,-4.6323,-4.6337,-4.6251,-4.6241,-4.6231,-4.6209,-4.6329,-4.6329,-4.6422,-4.6423,-4.6423]},{"header":{"parameterUnit":"m.s-1","parameterCategory":1,"la1":30.2991,"la2":30.254,"lo1":-89.0895,"lo2":-89.0444,"dy":0.0017,"dx":0.0017,"nx":28,"ny":28,"refTime":"2026-01-09T03:00:00:Z","depth":0,"parameterNumber":3,"parameterNumberName":"V-component_of_WINDS"},"data":[0,0,0,0,0,0,0,0,0,0,0,0,0,0,0,0,0,0,0,0,0,0,0,0,0,0,0,0,0,0,0,0,0,0,0,0,0,0,0,0,0,0,0,0,0,0,0,0,0,0,0,0,0,0,0,0,0,0,2.9813,2.9814,0,2.9862,2.9863,2.9863,2.986,2.9859,2.9858,2.9858,2.9905,2.9907,2.9909,0,0,0,0,0,0,0,0,0,0,0,0,0,2.9717,2.9719,2.9813,2.9814,2.9814,2.9862,2.9863,2.9863,2.986,2.9859,2.9858,2.9857,2.9905,2.9907,2.9909,0,0,0,0,0,0,0,0,0,0,0,0,0,2.9761,2.9719,2.9813,2.9818,2.9819,2.9862,2.9863,2.9864,2.986,2.9859,2.9858,2.9857,2.9904,2.9907,2.991,2.9949,0,0,2.9919,2.992,0,0,0,0,0,0,0,0,2.9759,2.9765,2.9817,2.9818,2.9819,2.9854,2.9846,2.9892,2.986,2.9844,2.9857,2.9856,2.9889,2.9893,2.9904,2.9951,2.9954,2.9919,2.9921,2.9922,2.9923,0,0,0,0,0,0,0,2.9756,2.9763,2.9832,2.9818,2.9819,2.9818,2.9824,2.9855,2.9872,2.9846,2.9846,2.9852,2.9889,2.9902,2.9905,2.9954,2.9919,2.9921,2.9923,2.9924,3.004,3.0041,0,0,0,0,0,0,2.9752,2.976,2.9831,2.9834,2.9786,2.9821,2.9827,2.9844,2.9872,2.9875,2.9852,2.9851,2.9897,2.9902,2.9907,2.9958,2.9922,2.9925,2.9926,3.0039,3.004,3.0042,0,0,0,0,0,0,2.975,2.9758,2.9829,2.9797,2.9806,2.9824,2.9843,2.9845,2.9858,2.9877,2.988,2.9862,2.9897,2.9903,2.994,2.996,2.9926,2.9928,3.0037,3.0039,3.0041,3.0059,0,0,0,0,0,0,2.9747,2.9757,2.9772,2.9798,2.9808,2.9861,2.9844,2.9847,2.9863,2.9862,2.9887,2.989,2.9896,2.9936,2.9943,2.9963,2.9931,3.0035,3.0038,3.004,3.0057,3.0061,3.0065,0,0,0,0,0,2.9743,2.9774,2.9773,2.9782,2.9827,2.9862,2.9868,2.9875,2.9864,2.988,2.9893,2.9889,2.9956,2.9939,2.9947,2.9969,3.0034,3.0037,3.004,3.0055,3.006,3.0065,0,0,0,0,0,0,2.9749,2.9777,2.9777,2.9816,2.9837,2.9861,2.9881,2.9881,2.9904,2.9902,2.991,2.9915,2.9953,2.9964,2.9945,3.0011,2.9994,2.9998,3.0002,3.0008,3.0012,3.0009,2.9933,0,0,0,0,0,2.9755,2.9782,2.9805,2.9837,2.9848,2.9863,2.9878,2.9883,2.9904,2.9912,2.9928,2.9948,2.9974,2.9991,3.0016,3.0058,3.0065,3.0077,3.0081,3.0085,3.0089,3.0115,3.0122,3.0051,3.0051,3.0051,0,0,2.9768,2.9786,2.9802,2.9839,2.9856,2.9884,2.987,2.9899,2.992,2.9916,2.9953,2.9965,2.9989,3.0029,3.0048,3.004,3.011,3.0088,3.0091,3.0094,3.0119,3.0126,3.0132,3.0054,3.0053,3.0053,0,0,2.9805,2.9821,2.9852,2.987,2.9896,2.9906,2.9913,2.9938,2.9947,2.9984,2.9983,3.0008,3.0051,3.007,3.0084,3.0132,3.013,3.0139,3.0162,3.0188,3.0193,3.0198,3.0218,3.0225,3.0144,3.0144,3.0144,0,2.9817,2.9859,2.9868,2.9898,2.9916,2.9915,2.9948,2.9964,2.9996,3.0008,2.9999,3.0057,3.0072,3.0118,3.013,3.0141,3.0151,3.0137,3.0192,3.0197,3.0202,3.0221,3.0228,3.0145,3.0145,3.0145,3.0144,0,2.9875,2.9904,2.9926,2.9959,2.9979,3.001,3.0023,3.0042,3.0045,3.0057,3.0096,3.0115,3.0145,3.0156,3.0158,3.0203,3.0198,3.019,3.0174,3.021,3.0228,3.0235,3.0147,3.0146,3.0146,3.0145,0,0,2.9916,2.9956,2.9964,2.9981,3.0011,3.0034,3.0065,3.0096,3.0114,3.0136,3.0164,3.0203,3.0197,3.0214,3.0218,3.024,3.028,3.023,3.0231,3.0241,3.0335,3.0342,3.035,3.0279,3.028,3.0281,3.0334,0,2.9959,3.0017,3.0026,3.0077,3.0105,3.0107,3.0135,3.0156,3.0168,3.0194,3.0207,3.0236,3.0224,3.0235,3.0256,3.0271,3.03,3.0267,3.0306,3.0308,3.0303,3.0359,3.0366,3.0415,3.034,3.0342,3.0342,0,3.0016,3.0043,3.0097,3.0126,3.0138,3.0163,3.0195,3.0219,3.0244,3.0251,3.0272,3.0275,3.0309,3.029,3.0338,3.0316,3.0332,3.0342,3.0344,3.0349,3.0329,3.0369,3.043,3.0439,3.0353,3.0352,3.0351,0,3.0045,3.0094,3.0134,3.0147,3.0181,3.02,3.0215,3.0239,3.0258,3.0284,3.0297,3.0327,3.0344,3.0367,3.0378,3.0363,3.0426,3.0408,3.0435,3.0435,3.0449,3.0448,3.0517,3.0456,3.0456,3.0456,3.0456,0,3.0093,3.0126,3.0148,3.0172,3.0211,3.0222,3.0259,3.0274,3.0296,3.0324,3.0325,3.0351,3.0364,3.0392,3.04,3.0441,3.0447,3.0455,3.0457,3.0456,3.0456,3.0469,3.0466,3.0458,3.0457,3.0457,3.0456,0,3.0132,3.0147,3.0191,3.0221,3.0229,3.0256,3.0282,3.0306,3.0318,3.0354,3.0363,3.0382,3.0416,3.0429,3.0469,3.0475,3.0523,3.0521,3.0515,3.0516,3.0543,3.0542,3.0625,3.0637,3.0565,3.0566,3.0567,0,3.0162,3.0189,3.0222,3.0242,3.0258,3.0289,3.0309,3.0321,3.0343,3.0375,3.0396,3.043,3.0458,3.0512,3.053,3.0561,3.0562,3.0589,3.0566,3.0566,3.0566,3.0565,3.0569,3.0593,3.0594,3.0594,3.0595,0,3.0216,3.0223,3.0253,3.0286,3.0311,3.0337,3.0363,3.0379,3.0395,3.0419,3.0454,3.0476,3.0519,3.0553,3.0587,3.0602,3.0602,3.0602,3.061,3.0611,3.0607,3.0612,3.0529,3.06,3.06,3.0599,3.0599,3.0599,3.0254,3.0279,3.0307,3.0341,3.0362,3.0387,3.0412,3.0429,3.0459,3.0496,3.0501,3.054,3.0567,3.0612,3.0629,3.0659,3.0652,3.0664,3.0667,3.067,3.0674,3.0601,3.0665,3.0665,3.0665,3.0665,3.0664,0,3.031,3.0329,3.036,3.0398,3.0425,3.0423,3.0452,3.0475,3.051,3.0535,3.0564,3.0606,3.064,3.0661,3.0696,3.0716,3.0718,3.0725,3.0725,3.0729,3.0677,3.0667,3.0724,3.0724,3.0724,3.0724,3.0724,3.0724,3.0343,3.0386,3.0397,3.0451,3.047,3.0509,3.0526,3.055,3.0571,3.0618,3.0647,3.0661,3.0686,3.0723,3.0754,3.076,3.0773,3.0782,3.0787,3.0738,3.0732,3.0726,3.0718,3.0784,3.0785,3.0838,3.0838,3.0839]}]]